Index of /20260412/WXO-DD/model_gdps/15km/12/117
Name Last modified Size Description
Parent Directory -
20260412T12Z_MSC_GDPS_AbsoluteVorticity_IsbL-0200_LatLon0.15_PT117H.grib2 2026-04-12 16:46 1.2M
20260412T12Z_MSC_GDPS_AbsoluteVorticity_IsbL-0250_LatLon0.15_PT117H.grib2 2026-04-12 16:46 1.3M
20260412T12Z_MSC_GDPS_AbsoluteVorticity_IsbL-0500_LatLon0.15_PT117H.grib2 2026-04-12 16:46 1.4M
20260412T12Z_MSC_GDPS_AbsoluteVorticity_IsbL-0700_LatLon0.15_PT117H.grib2 2026-04-12 16:46 1.3M
20260412T12Z_MSC_GDPS_AbsoluteVorticity_IsbL-0850_LatLon0.15_PT117H.grib2 2026-04-12 16:46 1.6M
20260412T12Z_MSC_GDPS_AirTemp_AGL-120m_LatLon0.15_PT117H.grib2 2026-04-12 16:46 912K
20260412T12Z_MSC_GDPS_AirTemp_AGL-2m_LatLon0.15_PT117H.grib2 2026-04-12 16:46 1.0M
20260412T12Z_MSC_GDPS_AirTemp_AGL-40m_LatLon0.15_PT117H.grib2 2026-04-12 16:46 812K
20260412T12Z_MSC_GDPS_AirTemp_AGL-80m_LatLon0.15_PT117H.grib2 2026-04-12 16:46 919K
20260412T12Z_MSC_GDPS_AirTemp_IsbL-0001_LatLon0.15_PT117H.grib2 2026-04-12 16:46 695K
20260412T12Z_MSC_GDPS_AirTemp_IsbL-0005_LatLon0.15_PT117H.grib2 2026-04-12 16:46 678K
20260412T12Z_MSC_GDPS_AirTemp_IsbL-0010_LatLon0.15_PT117H.grib2 2026-04-12 16:46 745K
20260412T12Z_MSC_GDPS_AirTemp_IsbL-0020_LatLon0.15_PT117H.grib2 2026-04-12 16:46 691K
20260412T12Z_MSC_GDPS_AirTemp_IsbL-0030_LatLon0.15_PT117H.grib2 2026-04-12 16:46 742K
20260412T12Z_MSC_GDPS_AirTemp_IsbL-0050_LatLon0.15_PT117H.grib2 2026-04-12 16:46 807K
20260412T12Z_MSC_GDPS_AirTemp_IsbL-0100_LatLon0.15_PT117H.grib2 2026-04-12 16:46 952K
20260412T12Z_MSC_GDPS_AirTemp_IsbL-0150_LatLon0.15_PT117H.grib2 2026-04-12 16:46 959K
20260412T12Z_MSC_GDPS_AirTemp_IsbL-0175_LatLon0.15_PT117H.grib2 2026-04-12 16:46 948K
20260412T12Z_MSC_GDPS_AirTemp_IsbL-0200_LatLon0.15_PT117H.grib2 2026-04-12 16:46 961K
20260412T12Z_MSC_GDPS_AirTemp_IsbL-0225_LatLon0.15_PT117H.grib2 2026-04-12 16:46 970K
20260412T12Z_MSC_GDPS_AirTemp_IsbL-0250_LatLon0.15_PT117H.grib2 2026-04-12 16:46 1.0M
20260412T12Z_MSC_GDPS_AirTemp_IsbL-0275_LatLon0.15_PT117H.grib2 2026-04-12 16:46 1.0M
20260412T12Z_MSC_GDPS_AirTemp_IsbL-0300_LatLon0.15_PT117H.grib2 2026-04-12 16:46 1.0M
20260412T12Z_MSC_GDPS_AirTemp_IsbL-0350_LatLon0.15_PT117H.grib2 2026-04-12 16:46 916K
20260412T12Z_MSC_GDPS_AirTemp_IsbL-0400_LatLon0.15_PT117H.grib2 2026-04-12 16:46 932K
20260412T12Z_MSC_GDPS_AirTemp_IsbL-0450_LatLon0.15_PT117H.grib2 2026-04-12 16:46 952K
20260412T12Z_MSC_GDPS_AirTemp_IsbL-0500_LatLon0.15_PT117H.grib2 2026-04-12 16:46 1.0M
20260412T12Z_MSC_GDPS_AirTemp_IsbL-0550_LatLon0.15_PT117H.grib2 2026-04-12 16:46 787K
20260412T12Z_MSC_GDPS_AirTemp_IsbL-0600_LatLon0.15_PT117H.grib2 2026-04-12 16:46 880K
20260412T12Z_MSC_GDPS_AirTemp_IsbL-0650_LatLon0.15_PT117H.grib2 2026-04-12 16:46 910K
20260412T12Z_MSC_GDPS_AirTemp_IsbL-0700_LatLon0.15_PT117H.grib2 2026-04-12 16:46 950K
20260412T12Z_MSC_GDPS_AirTemp_IsbL-0750_LatLon0.15_PT117H.grib2 2026-04-12 16:46 1.0M
20260412T12Z_MSC_GDPS_AirTemp_IsbL-0800_LatLon0.15_PT117H.grib2 2026-04-12 16:46 1.1M
20260412T12Z_MSC_GDPS_AirTemp_IsbL-0850_LatLon0.15_PT117H.grib2 2026-04-12 16:46 1.1M
20260412T12Z_MSC_GDPS_AirTemp_IsbL-0875_LatLon0.15_PT117H.grib2 2026-04-12 16:46 1.2M
20260412T12Z_MSC_GDPS_AirTemp_IsbL-0900_LatLon0.15_PT117H.grib2 2026-04-12 16:46 1.2M
20260412T12Z_MSC_GDPS_AirTemp_IsbL-0925_LatLon0.15_PT117H.grib2 2026-04-12 16:46 1.1M
20260412T12Z_MSC_GDPS_AirTemp_IsbL-0950_LatLon0.15_PT117H.grib2 2026-04-12 16:46 1.1M
20260412T12Z_MSC_GDPS_AirTemp_IsbL-0970_LatLon0.15_PT117H.grib2 2026-04-12 16:46 1.2M
20260412T12Z_MSC_GDPS_AirTemp_IsbL-0985_LatLon0.15_PT117H.grib2 2026-04-12 16:46 1.1M
20260412T12Z_MSC_GDPS_AirTemp_IsbL-1000_LatLon0.15_PT117H.grib2 2026-04-12 16:46 1.1M
20260412T12Z_MSC_GDPS_AirTemp_IsbL-1015_LatLon0.15_PT117H.grib2 2026-04-12 16:46 1.1M
20260412T12Z_MSC_GDPS_Albedo_Sfc_LatLon0.15_PT117H.grib2 2026-04-12 16:46 245K
20260412T12Z_MSC_GDPS_CAPE_Sfc_LatLon0.15_PT117H.grib2 2026-04-12 16:46 3.8M
20260412T12Z_MSC_GDPS_CIN_Sfc_LatLon0.15_PT117H.grib2 2026-04-12 16:46 2.9M
20260412T12Z_MSC_GDPS_CloudWater_EAtm_LatLon0.15_PT117H.grib2 2026-04-12 16:46 530K
20260412T12Z_MSC_GDPS_ConvectivePrecip-Accum_Sfc_LatLon0.15_PT117H.grib2 2026-04-12 16:46 3.3M
20260412T12Z_MSC_GDPS_DewPointDepression_AGL-2m_LatLon0.15_PT117H.grib2 2026-04-12 16:46 591K
20260412T12Z_MSC_GDPS_DewPointDepression_IsbL-0010_LatLon0.15_PT117H.grib2 2026-04-12 16:46 8.5K
20260412T12Z_MSC_GDPS_DewPointDepression_IsbL-0020_LatLon0.15_PT117H.grib2 2026-04-12 16:46 54K
20260412T12Z_MSC_GDPS_DewPointDepression_IsbL-0030_LatLon0.15_PT117H.grib2 2026-04-12 16:46 72K
20260412T12Z_MSC_GDPS_DewPointDepression_IsbL-0050_LatLon0.15_PT117H.grib2 2026-04-12 16:46 360K
20260412T12Z_MSC_GDPS_DewPointDepression_IsbL-0100_LatLon0.15_PT117H.grib2 2026-04-12 16:46 373K
20260412T12Z_MSC_GDPS_DewPointDepression_IsbL-0150_LatLon0.15_PT117H.grib2 2026-04-12 16:46 454K
20260412T12Z_MSC_GDPS_DewPointDepression_IsbL-0175_LatLon0.15_PT117H.grib2 2026-04-12 16:46 532K
20260412T12Z_MSC_GDPS_DewPointDepression_IsbL-0200_LatLon0.15_PT117H.grib2 2026-04-12 16:46 622K
20260412T12Z_MSC_GDPS_DewPointDepression_IsbL-0225_LatLon0.15_PT117H.grib2 2026-04-12 16:46 762K
20260412T12Z_MSC_GDPS_DewPointDepression_IsbL-0250_LatLon0.15_PT117H.grib2 2026-04-12 16:46 872K
20260412T12Z_MSC_GDPS_DewPointDepression_IsbL-0275_LatLon0.15_PT117H.grib2 2026-04-12 16:46 891K
20260412T12Z_MSC_GDPS_DewPointDepression_IsbL-0300_LatLon0.15_PT117H.grib2 2026-04-12 16:46 929K
20260412T12Z_MSC_GDPS_DewPointDepression_IsbL-0350_LatLon0.15_PT117H.grib2 2026-04-12 16:46 959K
20260412T12Z_MSC_GDPS_DewPointDepression_IsbL-0400_LatLon0.15_PT117H.grib2 2026-04-12 16:46 1.0M
20260412T12Z_MSC_GDPS_DewPointDepression_IsbL-0450_LatLon0.15_PT117H.grib2 2026-04-12 16:46 1.0M
20260412T12Z_MSC_GDPS_DewPointDepression_IsbL-0500_LatLon0.15_PT117H.grib2 2026-04-12 16:46 1.0M
20260412T12Z_MSC_GDPS_DewPointDepression_IsbL-0550_LatLon0.15_PT117H.grib2 2026-04-12 16:46 1.1M
20260412T12Z_MSC_GDPS_DewPointDepression_IsbL-0600_LatLon0.15_PT117H.grib2 2026-04-12 16:46 1.1M
20260412T12Z_MSC_GDPS_DewPointDepression_IsbL-0650_LatLon0.15_PT117H.grib2 2026-04-12 16:46 1.1M
20260412T12Z_MSC_GDPS_DewPointDepression_IsbL-0700_LatLon0.15_PT117H.grib2 2026-04-12 16:46 1.1M
20260412T12Z_MSC_GDPS_DewPointDepression_IsbL-0750_LatLon0.15_PT117H.grib2 2026-04-12 16:46 1.1M
20260412T12Z_MSC_GDPS_DewPointDepression_IsbL-0800_LatLon0.15_PT117H.grib2 2026-04-12 16:46 1.2M
20260412T12Z_MSC_GDPS_DewPointDepression_IsbL-0850_LatLon0.15_PT117H.grib2 2026-04-12 16:46 1.2M
20260412T12Z_MSC_GDPS_DewPointDepression_IsbL-0875_LatLon0.15_PT117H.grib2 2026-04-12 16:46 1.1M
20260412T12Z_MSC_GDPS_DewPointDepression_IsbL-0900_LatLon0.15_PT117H.grib2 2026-04-12 16:46 1.1M
20260412T12Z_MSC_GDPS_DewPointDepression_IsbL-0925_LatLon0.15_PT117H.grib2 2026-04-12 16:46 1.0M
20260412T12Z_MSC_GDPS_DewPointDepression_IsbL-0950_LatLon0.15_PT117H.grib2 2026-04-12 16:46 1.0M
20260412T12Z_MSC_GDPS_DewPointDepression_IsbL-0970_LatLon0.15_PT117H.grib2 2026-04-12 16:46 1.0M
20260412T12Z_MSC_GDPS_DewPointDepression_IsbL-0985_LatLon0.15_PT117H.grib2 2026-04-12 16:46 1.0M
20260412T12Z_MSC_GDPS_DewPointDepression_IsbL-1000_LatLon0.15_PT117H.grib2 2026-04-12 16:46 968K
20260412T12Z_MSC_GDPS_DewPointDepression_IsbL-1015_LatLon0.15_PT117H.grib2 2026-04-12 16:46 909K
20260412T12Z_MSC_GDPS_DewPoint_AGL-2m_LatLon0.15_PT117H.grib2 2026-04-12 16:46 616K
20260412T12Z_MSC_GDPS_DownwardLongwaveRadiationFlux-Accum_Sfc_LatLon0.15_PT117H.grib2 2026-04-12 16:46 796K
20260412T12Z_MSC_GDPS_DownwardShortwaveRadiationFlux-Accum_NTAtm_LatLon0.15_PT117H.grib2 2026-04-12 16:46 292K
20260412T12Z_MSC_GDPS_DownwardShortwaveRadiationFlux-Accum_Sfc_LatLon0.15_PT117H.grib2 2026-04-12 16:46 1.0M
20260412T12Z_MSC_GDPS_FreezingRain-Accum1h_Sfc_LatLon0.15_PT117H.grib2 2026-04-12 16:46 40K
20260412T12Z_MSC_GDPS_FreezingRain-Accum3h_Sfc_LatLon0.15_PT117H.grib2 2026-04-12 16:46 49K
20260412T12Z_MSC_GDPS_FreezingRain-Accum_Sfc_LatLon0.15_PT117H.grib2 2026-04-12 16:46 246K
20260412T12Z_MSC_GDPS_GeopotentialHeight_IsbL-0001_LatLon0.15_PT117H.grib2 2026-04-12 16:46 530K
20260412T12Z_MSC_GDPS_GeopotentialHeight_IsbL-0005_LatLon0.15_PT117H.grib2 2026-04-12 16:46 498K
20260412T12Z_MSC_GDPS_GeopotentialHeight_IsbL-0010_LatLon0.15_PT117H.grib2 2026-04-12 16:46 582K
20260412T12Z_MSC_GDPS_GeopotentialHeight_IsbL-0020_LatLon0.15_PT117H.grib2 2026-04-12 16:46 572K
20260412T12Z_MSC_GDPS_GeopotentialHeight_IsbL-0030_LatLon0.15_PT117H.grib2 2026-04-12 16:46 577K
20260412T12Z_MSC_GDPS_GeopotentialHeight_IsbL-0050_LatLon0.15_PT117H.grib2 2026-04-12 16:46 511K
20260412T12Z_MSC_GDPS_GeopotentialHeight_IsbL-0100_LatLon0.15_PT117H.grib2 2026-04-12 16:46 611K
20260412T12Z_MSC_GDPS_GeopotentialHeight_IsbL-0150_LatLon0.15_PT117H.grib2 2026-04-12 16:46 625K
20260412T12Z_MSC_GDPS_GeopotentialHeight_IsbL-0175_LatLon0.15_PT117H.grib2 2026-04-12 16:46 627K
20260412T12Z_MSC_GDPS_GeopotentialHeight_IsbL-0200_LatLon0.15_PT117H.grib2 2026-04-12 16:46 630K
20260412T12Z_MSC_GDPS_GeopotentialHeight_IsbL-0225_LatLon0.15_PT117H.grib2 2026-04-12 16:46 634K
20260412T12Z_MSC_GDPS_GeopotentialHeight_IsbL-0250_LatLon0.15_PT117H.grib2 2026-04-12 16:46 638K
20260412T12Z_MSC_GDPS_GeopotentialHeight_IsbL-0275_LatLon0.15_PT117H.grib2 2026-04-12 16:46 637K
20260412T12Z_MSC_GDPS_GeopotentialHeight_IsbL-0300_LatLon0.15_PT117H.grib2 2026-04-12 16:46 636K
20260412T12Z_MSC_GDPS_GeopotentialHeight_IsbL-0350_LatLon0.15_PT117H.grib2 2026-04-12 16:46 624K
20260412T12Z_MSC_GDPS_GeopotentialHeight_IsbL-0400_LatLon0.15_PT117H.grib2 2026-04-12 16:46 548K
20260412T12Z_MSC_GDPS_GeopotentialHeight_IsbL-0450_LatLon0.15_PT117H.grib2 2026-04-12 16:46 537K
20260412T12Z_MSC_GDPS_GeopotentialHeight_IsbL-0500_LatLon0.15_PT117H.grib2 2026-04-12 16:46 689K
20260412T12Z_MSC_GDPS_GeopotentialHeight_IsbL-0550_LatLon0.15_PT117H.grib2 2026-04-12 16:46 685K
20260412T12Z_MSC_GDPS_GeopotentialHeight_IsbL-0600_LatLon0.15_PT117H.grib2 2026-04-12 16:46 677K
20260412T12Z_MSC_GDPS_GeopotentialHeight_IsbL-0650_LatLon0.15_PT117H.grib2 2026-04-12 16:46 677K
20260412T12Z_MSC_GDPS_GeopotentialHeight_IsbL-0700_LatLon0.15_PT117H.grib2 2026-04-12 16:46 676K
20260412T12Z_MSC_GDPS_GeopotentialHeight_IsbL-0750_LatLon0.15_PT117H.grib2 2026-04-12 16:46 690K
20260412T12Z_MSC_GDPS_GeopotentialHeight_IsbL-0800_LatLon0.15_PT117H.grib2 2026-04-12 16:46 636K
20260412T12Z_MSC_GDPS_GeopotentialHeight_IsbL-0850_LatLon0.15_PT117H.grib2 2026-04-12 16:46 647K
20260412T12Z_MSC_GDPS_GeopotentialHeight_IsbL-0875_LatLon0.15_PT117H.grib2 2026-04-12 16:46 713K
20260412T12Z_MSC_GDPS_GeopotentialHeight_IsbL-0900_LatLon0.15_PT117H.grib2 2026-04-12 16:46 723K
20260412T12Z_MSC_GDPS_GeopotentialHeight_IsbL-0925_LatLon0.15_PT117H.grib2 2026-04-12 16:46 727K
20260412T12Z_MSC_GDPS_GeopotentialHeight_IsbL-0950_LatLon0.15_PT117H.grib2 2026-04-12 16:46 734K
20260412T12Z_MSC_GDPS_GeopotentialHeight_IsbL-0970_LatLon0.15_PT117H.grib2 2026-04-12 16:46 747K
20260412T12Z_MSC_GDPS_GeopotentialHeight_IsbL-0985_LatLon0.15_PT117H.grib2 2026-04-12 16:46 763K
20260412T12Z_MSC_GDPS_GeopotentialHeight_IsbL-1000_LatLon0.15_PT117H.grib2 2026-04-12 16:46 784K
20260412T12Z_MSC_GDPS_GeopotentialHeight_IsbL-1015_LatLon0.15_PT117H.grib2 2026-04-12 16:46 807K
20260412T12Z_MSC_GDPS_Humidex_Sfc_LatLon0.15_PT117H.grib2 2026-04-12 16:46 5.3M
20260412T12Z_MSC_GDPS_IcePellets-Accum1h_Sfc_LatLon0.15_PT117H.grib2 2026-04-12 16:46 16K
20260412T12Z_MSC_GDPS_IcePellets-Accum3h_Sfc_LatLon0.15_PT117H.grib2 2026-04-12 16:46 18K
20260412T12Z_MSC_GDPS_IcePellets-Accum_Sfc_LatLon0.15_PT117H.grib2 2026-04-12 16:46 143K
20260412T12Z_MSC_GDPS_KIndex_Sfc_LatLon0.15_PT117H.grib2 2026-04-12 16:46 6.5M
20260412T12Z_MSC_GDPS_LatentHeatNetFlux_Sfc_LatLon0.15_PT117H.grib2 2026-04-12 16:46 539K
20260412T12Z_MSC_GDPS_LiftedIndex-MU-VT_IsbL-0500_LatLon0.15_PT117H.grib2 2026-04-12 16:46 5.4M
20260412T12Z_MSC_GDPS_NetLongwaveRadiationFlux-Accum_Sfc_LatLon0.15_PT117H.grib2 2026-04-12 16:46 1.0M
20260412T12Z_MSC_GDPS_NetShortwaveRadiationFlux-Accum_Sfc_LatLon0.15_PT117H.grib2 2026-04-12 16:46 1.0M
20260412T12Z_MSC_GDPS_O3MixingRatio_LatLon0.15_PT117H.grib2 2026-04-12 17:06 2.3M
20260412T12Z_MSC_GDPS_O3_EAtm_LatLon0.15_PT117H.grib2 2026-04-12 17:06 2.1M
20260412T12Z_MSC_GDPS_PlanetaryBoundaryLayerHeight_Sfc_LatLon0.15_PT117H.grib2 2026-04-12 16:46 2.5M
20260412T12Z_MSC_GDPS_Precip-Accum1h_Sfc_LatLon0.15_PT117H.grib2 2026-04-12 16:46 3.3M
20260412T12Z_MSC_GDPS_Precip-Accum3h_Sfc_LatLon0.15_PT117H.grib2 2026-04-12 16:46 3.5M
20260412T12Z_MSC_GDPS_Precip-Accum_Sfc_LatLon0.15_PT117H.grib2 2026-04-12 16:46 4.7M
20260412T12Z_MSC_GDPS_PrecipRate_Sfc_LatLon0.15_PT117H.grib2 2026-04-12 16:46 2.9M
20260412T12Z_MSC_GDPS_PrecipType-Instant_Sfc_LatLon0.15_PT117H.grib2 2026-04-12 16:46 1.5M
20260412T12Z_MSC_GDPS_Pressure_MSL_LatLon0.15_PT117H.grib2 2026-04-12 16:46 719K
20260412T12Z_MSC_GDPS_Pressure_PVU-1.5_LatLon0.15_PT117H.grib2 2026-04-12 16:46 5.8M
20260412T12Z_MSC_GDPS_Pressure_PVU-1_LatLon0.15_PT117H.grib2 2026-04-12 16:46 6.0M
20260412T12Z_MSC_GDPS_Pressure_PVU-2_LatLon0.15_PT117H.grib2 2026-04-12 16:46 6.0M
20260412T12Z_MSC_GDPS_Pressure_Sfc_LatLon0.15_PT117H.grib2 2026-04-12 16:46 1.1M
20260412T12Z_MSC_GDPS_RadiativeTemp_Sfc_LatLon0.15_PT117H.grib2 2026-04-12 16:46 681K
20260412T12Z_MSC_GDPS_Rain-Accum1h_Sfc_LatLon0.15_PT117H.grib2 2026-04-12 16:46 1.6M
20260412T12Z_MSC_GDPS_Rain-Accum3h_Sfc_LatLon0.15_PT117H.grib2 2026-04-12 16:46 1.6M
20260412T12Z_MSC_GDPS_Rain-Accum_Sfc_LatLon0.15_PT117H.grib2 2026-04-12 16:46 3.8M
20260412T12Z_MSC_GDPS_RelativeHumidity_AGL-2m_LatLon0.15_PT117H.grib2 2026-04-12 16:46 1.0M
20260412T12Z_MSC_GDPS_RelativeHumidity_IsbL-0010_LatLon0.15_PT117H.grib2 2026-04-12 16:46 242K
20260412T12Z_MSC_GDPS_RelativeHumidity_IsbL-0020_LatLon0.15_PT117H.grib2 2026-04-12 16:46 367K
20260412T12Z_MSC_GDPS_RelativeHumidity_IsbL-0030_LatLon0.15_PT117H.grib2 2026-04-12 16:46 378K
20260412T12Z_MSC_GDPS_RelativeHumidity_IsbL-0050_LatLon0.15_PT117H.grib2 2026-04-12 16:46 319K
20260412T12Z_MSC_GDPS_RelativeHumidity_IsbL-0100_LatLon0.15_PT117H.grib2 2026-04-12 16:46 487K
20260412T12Z_MSC_GDPS_RelativeHumidity_IsbL-0150_LatLon0.15_PT117H.grib2 2026-04-12 16:46 641K
20260412T12Z_MSC_GDPS_RelativeHumidity_IsbL-0175_LatLon0.15_PT117H.grib2 2026-04-12 16:46 769K
20260412T12Z_MSC_GDPS_RelativeHumidity_IsbL-0200_LatLon0.15_PT117H.grib2 2026-04-12 16:46 686K
20260412T12Z_MSC_GDPS_RelativeHumidity_IsbL-0225_LatLon0.15_PT117H.grib2 2026-04-12 16:46 784K
20260412T12Z_MSC_GDPS_RelativeHumidity_IsbL-0250_LatLon0.15_PT117H.grib2 2026-04-12 16:46 874K
20260412T12Z_MSC_GDPS_RelativeHumidity_IsbL-0275_LatLon0.15_PT117H.grib2 2026-04-12 16:46 898K
20260412T12Z_MSC_GDPS_RelativeHumidity_IsbL-0300_LatLon0.15_PT117H.grib2 2026-04-12 16:46 943K
20260412T12Z_MSC_GDPS_RelativeHumidity_IsbL-0350_LatLon0.15_PT117H.grib2 2026-04-12 16:46 966K
20260412T12Z_MSC_GDPS_RelativeHumidity_IsbL-0400_LatLon0.15_PT117H.grib2 2026-04-12 16:46 1.0M
20260412T12Z_MSC_GDPS_RelativeHumidity_IsbL-0450_LatLon0.15_PT117H.grib2 2026-04-12 16:46 1.0M
20260412T12Z_MSC_GDPS_RelativeHumidity_IsbL-0500_LatLon0.15_PT117H.grib2 2026-04-12 16:46 1.0M
20260412T12Z_MSC_GDPS_RelativeHumidity_IsbL-0550_LatLon0.15_PT117H.grib2 2026-04-12 16:46 1.1M
20260412T12Z_MSC_GDPS_RelativeHumidity_IsbL-0600_LatLon0.15_PT117H.grib2 2026-04-12 16:46 1.1M
20260412T12Z_MSC_GDPS_RelativeHumidity_IsbL-0650_LatLon0.15_PT117H.grib2 2026-04-12 16:46 1.1M
20260412T12Z_MSC_GDPS_RelativeHumidity_IsbL-0700_LatLon0.15_PT117H.grib2 2026-04-12 16:46 1.1M
20260412T12Z_MSC_GDPS_RelativeHumidity_IsbL-0750_LatLon0.15_PT117H.grib2 2026-04-12 16:46 1.2M
20260412T12Z_MSC_GDPS_RelativeHumidity_IsbL-0800_LatLon0.15_PT117H.grib2 2026-04-12 16:46 1.3M
20260412T12Z_MSC_GDPS_RelativeHumidity_IsbL-0850_LatLon0.15_PT117H.grib2 2026-04-12 16:46 1.3M
20260412T12Z_MSC_GDPS_RelativeHumidity_IsbL-0875_LatLon0.15_PT117H.grib2 2026-04-12 16:46 1.3M
20260412T12Z_MSC_GDPS_RelativeHumidity_IsbL-0900_LatLon0.15_PT117H.grib2 2026-04-12 16:46 1.3M
20260412T12Z_MSC_GDPS_RelativeHumidity_IsbL-0925_LatLon0.15_PT117H.grib2 2026-04-12 16:46 1.2M
20260412T12Z_MSC_GDPS_RelativeHumidity_IsbL-0950_LatLon0.15_PT117H.grib2 2026-04-12 16:46 1.2M
20260412T12Z_MSC_GDPS_RelativeHumidity_IsbL-0970_LatLon0.15_PT117H.grib2 2026-04-12 16:46 1.2M
20260412T12Z_MSC_GDPS_RelativeHumidity_IsbL-0985_LatLon0.15_PT117H.grib2 2026-04-12 16:46 1.2M
20260412T12Z_MSC_GDPS_RelativeHumidity_IsbL-1000_LatLon0.15_PT117H.grib2 2026-04-12 16:46 1.1M
20260412T12Z_MSC_GDPS_RelativeHumidity_IsbL-1015_LatLon0.15_PT117H.grib2 2026-04-12 16:46 1.0M
20260412T12Z_MSC_GDPS_RelativeVorticity_IsbL-0200_LatLon0.15_PT117H.grib2 2026-04-12 16:46 1.5M
20260412T12Z_MSC_GDPS_RelativeVorticity_IsbL-0250_LatLon0.15_PT117H.grib2 2026-04-12 16:46 1.3M
20260412T12Z_MSC_GDPS_RelativeVorticity_IsbL-0500_LatLon0.15_PT117H.grib2 2026-04-12 16:46 1.4M
20260412T12Z_MSC_GDPS_RelativeVorticity_IsbL-0700_LatLon0.15_PT117H.grib2 2026-04-12 16:46 1.6M
20260412T12Z_MSC_GDPS_RelativeVorticity_IsbL-0850_LatLon0.15_PT117H.grib2 2026-04-12 16:46 1.6M
20260412T12Z_MSC_GDPS_Runoff-Accum_Sfc_LatLon0.15_PT117H.grib2 2026-04-12 16:46 82K
20260412T12Z_MSC_GDPS_SensibleHeatNetFlux_Sfc_LatLon0.15_PT117H.grib2 2026-04-12 16:46 643K
20260412T12Z_MSC_GDPS_ShowalterIndex_IsbL-0500_LatLon0.15_PT117H.grib2 2026-04-12 16:46 6.2M
20260412T12Z_MSC_GDPS_Snow-Accum1h_Sfc_LatLon0.15_PT117H.grib2 2026-04-12 16:46 1.0M
20260412T12Z_MSC_GDPS_Snow-Accum3h_Sfc_LatLon0.15_PT117H.grib2 2026-04-12 16:46 1.1M
20260412T12Z_MSC_GDPS_Snow-Accum_Sfc_LatLon0.15_PT117H.grib2 2026-04-12 16:46 1.9M
20260412T12Z_MSC_GDPS_SnowDensity_Sfc_LatLon0.15_PT117H.grib2 2026-04-12 16:46 270K
20260412T12Z_MSC_GDPS_SnowDepth_Sfc_LatLon0.15_PT117H.grib2 2026-04-12 16:46 1.8M
20260412T12Z_MSC_GDPS_SoilTemp_DBS-0to10cm_LatLon0.15_PT117H.grib2 2026-04-12 16:46 507K
20260412T12Z_MSC_GDPS_SoilTemp_Sfc_LatLon0.15_PT117H.grib2 2026-04-12 16:46 579K
20260412T12Z_MSC_GDPS_SoilVolumetricIceContent_Sfc_LatLon0.15_PT117H.grib2 2026-04-12 16:46 225K
20260412T12Z_MSC_GDPS_SoilVolumetricWaterContent_DBS-0to10cm_LatLon0.15_PT117H.grib2 2026-04-12 16:46 552K
20260412T12Z_MSC_GDPS_SoilVolumetricWaterContent_DBS-0to1cm_LatLon0.15_PT117H.grib2 2026-04-12 16:46 653K
20260412T12Z_MSC_GDPS_SpecificHumidity_AGL-120m_LatLon0.15_PT117H.grib2 2026-04-12 16:46 1.1M
20260412T12Z_MSC_GDPS_SpecificHumidity_AGL-2m_LatLon0.15_PT117H.grib2 2026-04-12 16:46 1.2M
20260412T12Z_MSC_GDPS_SpecificHumidity_AGL-40m_LatLon0.15_PT117H.grib2 2026-04-12 16:46 1.1M
20260412T12Z_MSC_GDPS_SpecificHumidity_AGL-80m_LatLon0.15_PT117H.grib2 2026-04-12 16:46 1.1M
20260412T12Z_MSC_GDPS_SpecificHumidity_IsbL-0001_LatLon0.15_PT117H.grib2 2026-04-12 16:46 1.1M
20260412T12Z_MSC_GDPS_SpecificHumidity_IsbL-0005_LatLon0.15_PT117H.grib2 2026-04-12 16:46 1.1M
20260412T12Z_MSC_GDPS_SpecificHumidity_IsbL-0010_LatLon0.15_PT117H.grib2 2026-04-12 16:46 1.2M
20260412T12Z_MSC_GDPS_SpecificHumidity_IsbL-0020_LatLon0.15_PT117H.grib2 2026-04-12 16:46 1.3M
20260412T12Z_MSC_GDPS_SpecificHumidity_IsbL-0030_LatLon0.15_PT117H.grib2 2026-04-12 16:46 1.6M
20260412T12Z_MSC_GDPS_SpecificHumidity_IsbL-0050_LatLon0.15_PT117H.grib2 2026-04-12 16:46 1.3M
20260412T12Z_MSC_GDPS_SpecificHumidity_IsbL-0100_LatLon0.15_PT117H.grib2 2026-04-12 16:46 1.3M
20260412T12Z_MSC_GDPS_SpecificHumidity_IsbL-0150_LatLon0.15_PT117H.grib2 2026-04-12 16:46 1.3M
20260412T12Z_MSC_GDPS_SpecificHumidity_IsbL-0175_LatLon0.15_PT117H.grib2 2026-04-12 16:46 1.3M
20260412T12Z_MSC_GDPS_SpecificHumidity_IsbL-0200_LatLon0.15_PT117H.grib2 2026-04-12 16:46 1.0M
20260412T12Z_MSC_GDPS_SpecificHumidity_IsbL-0225_LatLon0.15_PT117H.grib2 2026-04-12 16:46 1.3M
20260412T12Z_MSC_GDPS_SpecificHumidity_IsbL-0250_LatLon0.15_PT117H.grib2 2026-04-12 16:46 1.2M
20260412T12Z_MSC_GDPS_SpecificHumidity_IsbL-0275_LatLon0.15_PT117H.grib2 2026-04-12 16:46 1.1M
20260412T12Z_MSC_GDPS_SpecificHumidity_IsbL-0300_LatLon0.15_PT117H.grib2 2026-04-12 16:46 1.2M
20260412T12Z_MSC_GDPS_SpecificHumidity_IsbL-0350_LatLon0.15_PT117H.grib2 2026-04-12 16:46 1.2M
20260412T12Z_MSC_GDPS_SpecificHumidity_IsbL-0400_LatLon0.15_PT117H.grib2 2026-04-12 16:46 1.4M
20260412T12Z_MSC_GDPS_SpecificHumidity_IsbL-0450_LatLon0.15_PT117H.grib2 2026-04-12 16:46 1.3M
20260412T12Z_MSC_GDPS_SpecificHumidity_IsbL-0500_LatLon0.15_PT117H.grib2 2026-04-12 16:46 1.4M
20260412T12Z_MSC_GDPS_SpecificHumidity_IsbL-0550_LatLon0.15_PT117H.grib2 2026-04-12 16:46 1.6M
20260412T12Z_MSC_GDPS_SpecificHumidity_IsbL-0600_LatLon0.15_PT117H.grib2 2026-04-12 16:46 1.4M
20260412T12Z_MSC_GDPS_SpecificHumidity_IsbL-0650_LatLon0.15_PT117H.grib2 2026-04-12 16:46 1.5M
20260412T12Z_MSC_GDPS_SpecificHumidity_IsbL-0700_LatLon0.15_PT117H.grib2 2026-04-12 16:46 1.6M
20260412T12Z_MSC_GDPS_SpecificHumidity_IsbL-0750_LatLon0.15_PT117H.grib2 2026-04-12 16:46 1.7M
20260412T12Z_MSC_GDPS_SpecificHumidity_IsbL-0800_LatLon0.15_PT117H.grib2 2026-04-12 16:46 1.8M
20260412T12Z_MSC_GDPS_SpecificHumidity_IsbL-0850_LatLon0.15_PT117H.grib2 2026-04-12 16:46 1.9M
20260412T12Z_MSC_GDPS_SpecificHumidity_IsbL-0875_LatLon0.15_PT117H.grib2 2026-04-12 16:46 1.9M
20260412T12Z_MSC_GDPS_SpecificHumidity_IsbL-0900_LatLon0.15_PT117H.grib2 2026-04-12 16:46 1.9M
20260412T12Z_MSC_GDPS_SpecificHumidity_IsbL-0925_LatLon0.15_PT117H.grib2 2026-04-12 16:46 1.6M
20260412T12Z_MSC_GDPS_SpecificHumidity_IsbL-0950_LatLon0.15_PT117H.grib2 2026-04-12 16:46 1.6M
20260412T12Z_MSC_GDPS_SpecificHumidity_IsbL-0970_LatLon0.15_PT117H.grib2 2026-04-12 16:46 1.5M
20260412T12Z_MSC_GDPS_SpecificHumidity_IsbL-0985_LatLon0.15_PT117H.grib2 2026-04-12 16:46 1.5M
20260412T12Z_MSC_GDPS_SpecificHumidity_IsbL-1000_LatLon0.15_PT117H.grib2 2026-04-12 16:46 1.5M
20260412T12Z_MSC_GDPS_SpecificHumidity_IsbL-1015_LatLon0.15_PT117H.grib2 2026-04-12 16:46 1.4M
20260412T12Z_MSC_GDPS_SpecificHumidity_Sfc_LatLon0.15_PT117H.grib2 2026-04-12 16:46 669K
20260412T12Z_MSC_GDPS_Thickness_IsbL-0850to0700_LatLon0.15_PT117H.grib2 2026-04-12 16:46 466K
20260412T12Z_MSC_GDPS_Thickness_IsbL-1000to0500_LatLon0.15_PT117H.grib2 2026-04-12 16:46 373K
20260412T12Z_MSC_GDPS_Thickness_IsbL-1000to0850_LatLon0.15_PT117H.grib2 2026-04-12 16:46 491K
20260412T12Z_MSC_GDPS_TotalCloudCover_Sfc_LatLon0.15_PT117H.grib2 2026-04-12 16:46 831K
20260412T12Z_MSC_GDPS_TotalTotalsIndex_Sfc_LatLon0.15_PT117H.grib2 2026-04-12 16:46 6.2M
20260412T12Z_MSC_GDPS_UVIndex-ClearSky_Sfc_LatLon0.15_PT117H.grib2 2026-04-12 17:06 1.0M
20260412T12Z_MSC_GDPS_UVIndex_Sfc_LatLon0.15_PT117H.grib2 2026-04-12 17:06 1.4M
20260412T12Z_MSC_GDPS_UpwardLongwaveRadiationFlux_NTAtm_LatLon0.15_PT117H.grib2 2026-04-12 16:46 836K
20260412T12Z_MSC_GDPS_VerticalVelocity_IsbL-0200_LatLon0.15_PT117H.grib2 2026-04-12 16:46 1.1M
20260412T12Z_MSC_GDPS_VerticalVelocity_IsbL-0250_LatLon0.15_PT117H.grib2 2026-04-12 16:46 1.0M
20260412T12Z_MSC_GDPS_VerticalVelocity_IsbL-0500_LatLon0.15_PT117H.grib2 2026-04-12 16:46 1.0M
20260412T12Z_MSC_GDPS_VerticalVelocity_IsbL-0600_LatLon0.15_PT117H.grib2 2026-04-12 16:46 1.0M
20260412T12Z_MSC_GDPS_VerticalVelocity_IsbL-0700_LatLon0.15_PT117H.grib2 2026-04-12 16:46 1.4M
20260412T12Z_MSC_GDPS_VerticalVelocity_IsbL-0850_LatLon0.15_PT117H.grib2 2026-04-12 16:46 1.6M
20260412T12Z_MSC_GDPS_WindChill_Sfc_LatLon0.15_PT117H.grib2 2026-04-12 16:46 5.4M
20260412T12Z_MSC_GDPS_WindDir_AGL-10m_LatLon0.15_PT117H.grib2 2026-04-12 16:46 1.3M
20260412T12Z_MSC_GDPS_WindDir_AGL-120m_LatLon0.15_PT117H.grib2 2026-04-12 16:46 1.4M
20260412T12Z_MSC_GDPS_WindDir_AGL-40m_LatLon0.15_PT117H.grib2 2026-04-12 16:46 1.4M
20260412T12Z_MSC_GDPS_WindDir_AGL-80m_LatLon0.15_PT117H.grib2 2026-04-12 16:46 1.4M
20260412T12Z_MSC_GDPS_WindDir_IsbL-0001_LatLon0.15_PT117H.grib2 2026-04-12 16:46 641K
20260412T12Z_MSC_GDPS_WindDir_IsbL-0005_LatLon0.15_PT117H.grib2 2026-04-12 16:46 769K
20260412T12Z_MSC_GDPS_WindDir_IsbL-0010_LatLon0.15_PT117H.grib2 2026-04-12 16:46 832K
20260412T12Z_MSC_GDPS_WindDir_IsbL-0020_LatLon0.15_PT117H.grib2 2026-04-12 16:46 911K
20260412T12Z_MSC_GDPS_WindDir_IsbL-0030_LatLon0.15_PT117H.grib2 2026-04-12 16:46 864K
20260412T12Z_MSC_GDPS_WindDir_IsbL-0050_LatLon0.15_PT117H.grib2 2026-04-12 16:46 932K
20260412T12Z_MSC_GDPS_WindDir_IsbL-0100_LatLon0.15_PT117H.grib2 2026-04-12 16:46 1.0M
20260412T12Z_MSC_GDPS_WindDir_IsbL-0150_LatLon0.15_PT117H.grib2 2026-04-12 16:46 1.0M
20260412T12Z_MSC_GDPS_WindDir_IsbL-0175_LatLon0.15_PT117H.grib2 2026-04-12 16:46 1.0M
20260412T12Z_MSC_GDPS_WindDir_IsbL-0200_LatLon0.15_PT117H.grib2 2026-04-12 16:46 1.1M
20260412T12Z_MSC_GDPS_WindDir_IsbL-0225_LatLon0.15_PT117H.grib2 2026-04-12 16:46 1.1M
20260412T12Z_MSC_GDPS_WindDir_IsbL-0250_LatLon0.15_PT117H.grib2 2026-04-12 16:46 1.1M
20260412T12Z_MSC_GDPS_WindDir_IsbL-0275_LatLon0.15_PT117H.grib2 2026-04-12 16:46 1.2M
20260412T12Z_MSC_GDPS_WindDir_IsbL-0300_LatLon0.15_PT117H.grib2 2026-04-12 16:46 1.2M
20260412T12Z_MSC_GDPS_WindDir_IsbL-0350_LatLon0.15_PT117H.grib2 2026-04-12 16:46 1.2M
20260412T12Z_MSC_GDPS_WindDir_IsbL-0400_LatLon0.15_PT117H.grib2 2026-04-12 16:46 1.3M
20260412T12Z_MSC_GDPS_WindDir_IsbL-0450_LatLon0.15_PT117H.grib2 2026-04-12 16:46 1.3M
20260412T12Z_MSC_GDPS_WindDir_IsbL-0500_LatLon0.15_PT117H.grib2 2026-04-12 16:46 1.4M
20260412T12Z_MSC_GDPS_WindDir_IsbL-0550_LatLon0.15_PT117H.grib2 2026-04-12 16:46 1.4M
20260412T12Z_MSC_GDPS_WindDir_IsbL-0600_LatLon0.15_PT117H.grib2 2026-04-12 16:46 1.4M
20260412T12Z_MSC_GDPS_WindDir_IsbL-0650_LatLon0.15_PT117H.grib2 2026-04-12 16:46 1.5M
20260412T12Z_MSC_GDPS_WindDir_IsbL-0700_LatLon0.15_PT117H.grib2 2026-04-12 16:46 1.6M
20260412T12Z_MSC_GDPS_WindDir_IsbL-0750_LatLon0.15_PT117H.grib2 2026-04-12 16:46 1.7M
20260412T12Z_MSC_GDPS_WindDir_IsbL-0800_LatLon0.15_PT117H.grib2 2026-04-12 16:46 1.8M
20260412T12Z_MSC_GDPS_WindDir_IsbL-0850_LatLon0.15_PT117H.grib2 2026-04-12 16:46 2.0M
20260412T12Z_MSC_GDPS_WindDir_IsbL-0875_LatLon0.15_PT117H.grib2 2026-04-12 16:46 2.0M
20260412T12Z_MSC_GDPS_WindDir_IsbL-0900_LatLon0.15_PT117H.grib2 2026-04-12 16:46 2.0M
20260412T12Z_MSC_GDPS_WindDir_IsbL-0925_LatLon0.15_PT117H.grib2 2026-04-12 16:46 2.0M
20260412T12Z_MSC_GDPS_WindDir_IsbL-0950_LatLon0.15_PT117H.grib2 2026-04-12 16:46 2.0M
20260412T12Z_MSC_GDPS_WindDir_IsbL-0970_LatLon0.15_PT117H.grib2 2026-04-12 16:46 2.0M
20260412T12Z_MSC_GDPS_WindDir_IsbL-0985_LatLon0.15_PT117H.grib2 2026-04-12 16:46 2.0M
20260412T12Z_MSC_GDPS_WindDir_IsbL-1000_LatLon0.15_PT117H.grib2 2026-04-12 16:46 2.1M
20260412T12Z_MSC_GDPS_WindDir_IsbL-1015_LatLon0.15_PT117H.grib2 2026-04-12 16:46 2.1M
20260412T12Z_MSC_GDPS_WindGust-Max_AGL-10m_LatLon0.15_PT117H.grib2 2026-04-12 16:46 2.2M
20260412T12Z_MSC_GDPS_WindGust-Min_AGL-10m_LatLon0.15_PT117H.grib2 2026-04-12 16:46 2.2M
20260412T12Z_MSC_GDPS_WindGust_AGL-10m_LatLon0.15_PT117H.grib2 2026-04-12 16:46 2.2M
20260412T12Z_MSC_GDPS_WindSpeed_AGL-10m_LatLon0.15_PT117H.grib2 2026-04-12 16:46 1.1M
20260412T12Z_MSC_GDPS_WindSpeed_AGL-120m_LatLon0.15_PT117H.grib2 2026-04-12 16:46 1.2M
20260412T12Z_MSC_GDPS_WindSpeed_AGL-40m_LatLon0.15_PT117H.grib2 2026-04-12 16:46 1.2M
20260412T12Z_MSC_GDPS_WindSpeed_AGL-80m_LatLon0.15_PT117H.grib2 2026-04-12 16:46 1.2M
20260412T12Z_MSC_GDPS_WindSpeed_IsbL-0001_LatLon0.15_PT117H.grib2 2026-04-12 16:46 628K
20260412T12Z_MSC_GDPS_WindSpeed_IsbL-0005_LatLon0.15_PT117H.grib2 2026-04-12 16:46 679K
20260412T12Z_MSC_GDPS_WindSpeed_IsbL-0010_LatLon0.15_PT117H.grib2 2026-04-12 16:46 616K
20260412T12Z_MSC_GDPS_WindSpeed_IsbL-0020_LatLon0.15_PT117H.grib2 2026-04-12 16:46 662K
20260412T12Z_MSC_GDPS_WindSpeed_IsbL-0030_LatLon0.15_PT117H.grib2 2026-04-12 16:46 848K
20260412T12Z_MSC_GDPS_WindSpeed_IsbL-0050_LatLon0.15_PT117H.grib2 2026-04-12 16:46 1.0M
20260412T12Z_MSC_GDPS_WindSpeed_IsbL-0100_LatLon0.15_PT117H.grib2 2026-04-12 16:46 1.1M
20260412T12Z_MSC_GDPS_WindSpeed_IsbL-0150_LatLon0.15_PT117H.grib2 2026-04-12 16:46 1.0M
20260412T12Z_MSC_GDPS_WindSpeed_IsbL-0175_LatLon0.15_PT117H.grib2 2026-04-12 16:46 1.0M
20260412T12Z_MSC_GDPS_WindSpeed_IsbL-0200_LatLon0.15_PT117H.grib2 2026-04-12 16:46 1.0M
20260412T12Z_MSC_GDPS_WindSpeed_IsbL-0225_LatLon0.15_PT117H.grib2 2026-04-12 16:46 1.1M
20260412T12Z_MSC_GDPS_WindSpeed_IsbL-0250_LatLon0.15_PT117H.grib2 2026-04-12 16:46 1.1M
20260412T12Z_MSC_GDPS_WindSpeed_IsbL-0275_LatLon0.15_PT117H.grib2 2026-04-12 16:46 1.1M
20260412T12Z_MSC_GDPS_WindSpeed_IsbL-0300_LatLon0.15_PT117H.grib2 2026-04-12 16:46 1.1M
20260412T12Z_MSC_GDPS_WindSpeed_IsbL-0350_LatLon0.15_PT117H.grib2 2026-04-12 16:46 1.1M
20260412T12Z_MSC_GDPS_WindSpeed_IsbL-0400_LatLon0.15_PT117H.grib2 2026-04-12 16:46 1.1M
20260412T12Z_MSC_GDPS_WindSpeed_IsbL-0450_LatLon0.15_PT117H.grib2 2026-04-12 16:46 1.1M
20260412T12Z_MSC_GDPS_WindSpeed_IsbL-0500_LatLon0.15_PT117H.grib2 2026-04-12 16:46 1.1M
20260412T12Z_MSC_GDPS_WindSpeed_IsbL-0550_LatLon0.15_PT117H.grib2 2026-04-12 16:46 1.1M
20260412T12Z_MSC_GDPS_WindSpeed_IsbL-0600_LatLon0.15_PT117H.grib2 2026-04-12 16:46 1.4M
20260412T12Z_MSC_GDPS_WindSpeed_IsbL-0650_LatLon0.15_PT117H.grib2 2026-04-12 16:46 1.4M
20260412T12Z_MSC_GDPS_WindSpeed_IsbL-0700_LatLon0.15_PT117H.grib2 2026-04-12 16:46 1.6M
20260412T12Z_MSC_GDPS_WindSpeed_IsbL-0750_LatLon0.15_PT117H.grib2 2026-04-12 16:46 1.6M
20260412T12Z_MSC_GDPS_WindSpeed_IsbL-0800_LatLon0.15_PT117H.grib2 2026-04-12 16:46 1.7M
20260412T12Z_MSC_GDPS_WindSpeed_IsbL-0850_LatLon0.15_PT117H.grib2 2026-04-12 16:46 1.7M
20260412T12Z_MSC_GDPS_WindSpeed_IsbL-0875_LatLon0.15_PT117H.grib2 2026-04-12 16:46 1.9M
20260412T12Z_MSC_GDPS_WindSpeed_IsbL-0900_LatLon0.15_PT117H.grib2 2026-04-12 16:46 1.8M
20260412T12Z_MSC_GDPS_WindSpeed_IsbL-0925_LatLon0.15_PT117H.grib2 2026-04-12 16:46 1.8M
20260412T12Z_MSC_GDPS_WindSpeed_IsbL-0950_LatLon0.15_PT117H.grib2 2026-04-12 16:46 1.9M
20260412T12Z_MSC_GDPS_WindSpeed_IsbL-0970_LatLon0.15_PT117H.grib2 2026-04-12 16:46 1.9M
20260412T12Z_MSC_GDPS_WindSpeed_IsbL-0985_LatLon0.15_PT117H.grib2 2026-04-12 16:46 1.9M
20260412T12Z_MSC_GDPS_WindSpeed_IsbL-1000_LatLon0.15_PT117H.grib2 2026-04-12 16:46 1.9M
20260412T12Z_MSC_GDPS_WindSpeed_IsbL-1015_LatLon0.15_PT117H.grib2 2026-04-12 16:46 1.8M
20260412T12Z_MSC_GDPS_WindU_AGL-10m_LatLon0.15_PT117H.grib2 2026-04-12 16:46 1.3M
20260412T12Z_MSC_GDPS_WindU_AGL-120m_LatLon0.15_PT117H.grib2 2026-04-12 16:46 964K
20260412T12Z_MSC_GDPS_WindU_AGL-40m_LatLon0.15_PT117H.grib2 2026-04-12 16:46 961K
20260412T12Z_MSC_GDPS_WindU_AGL-80m_LatLon0.15_PT117H.grib2 2026-04-12 16:46 965K
20260412T12Z_MSC_GDPS_WindU_IsbL-0001_LatLon0.15_PT117H.grib2 2026-04-12 16:46 634K
20260412T12Z_MSC_GDPS_WindU_IsbL-0005_LatLon0.15_PT117H.grib2 2026-04-12 16:46 679K
20260412T12Z_MSC_GDPS_WindU_IsbL-0010_LatLon0.15_PT117H.grib2 2026-04-12 16:46 693K
20260412T12Z_MSC_GDPS_WindU_IsbL-0020_LatLon0.15_PT117H.grib2 2026-04-12 16:46 731K
20260412T12Z_MSC_GDPS_WindU_IsbL-0030_LatLon0.15_PT117H.grib2 2026-04-12 16:46 728K
20260412T12Z_MSC_GDPS_WindU_IsbL-0050_LatLon0.15_PT117H.grib2 2026-04-12 16:46 695K
20260412T12Z_MSC_GDPS_WindU_IsbL-0100_LatLon0.15_PT117H.grib2 2026-04-12 16:46 921K
20260412T12Z_MSC_GDPS_WindU_IsbL-0150_LatLon0.15_PT117H.grib2 2026-04-12 16:46 1.0M
20260412T12Z_MSC_GDPS_WindU_IsbL-0175_LatLon0.15_PT117H.grib2 2026-04-12 16:46 1.0M
20260412T12Z_MSC_GDPS_WindU_IsbL-0200_LatLon0.15_PT117H.grib2 2026-04-12 16:46 1.0M
20260412T12Z_MSC_GDPS_WindU_IsbL-0225_LatLon0.15_PT117H.grib2 2026-04-12 16:46 1.1M
20260412T12Z_MSC_GDPS_WindU_IsbL-0250_LatLon0.15_PT117H.grib2 2026-04-12 16:46 1.1M
20260412T12Z_MSC_GDPS_WindU_IsbL-0275_LatLon0.15_PT117H.grib2 2026-04-12 16:46 881K
20260412T12Z_MSC_GDPS_WindU_IsbL-0300_LatLon0.15_PT117H.grib2 2026-04-12 16:46 870K
20260412T12Z_MSC_GDPS_WindU_IsbL-0350_LatLon0.15_PT117H.grib2 2026-04-12 16:46 885K
20260412T12Z_MSC_GDPS_WindU_IsbL-0400_LatLon0.15_PT117H.grib2 2026-04-12 16:46 1.1M
20260412T12Z_MSC_GDPS_WindU_IsbL-0450_LatLon0.15_PT117H.grib2 2026-04-12 16:46 1.1M
20260412T12Z_MSC_GDPS_WindU_IsbL-0500_LatLon0.15_PT117H.grib2 2026-04-12 16:46 1.1M
20260412T12Z_MSC_GDPS_WindU_IsbL-0550_LatLon0.15_PT117H.grib2 2026-04-12 16:46 1.1M
20260412T12Z_MSC_GDPS_WindU_IsbL-0600_LatLon0.15_PT117H.grib2 2026-04-12 16:46 1.1M
20260412T12Z_MSC_GDPS_WindU_IsbL-0650_LatLon0.15_PT117H.grib2 2026-04-12 16:46 1.2M
20260412T12Z_MSC_GDPS_WindU_IsbL-0700_LatLon0.15_PT117H.grib2 2026-04-12 16:46 1.2M
20260412T12Z_MSC_GDPS_WindU_IsbL-0750_LatLon0.15_PT117H.grib2 2026-04-12 16:46 1.3M
20260412T12Z_MSC_GDPS_WindU_IsbL-0800_LatLon0.15_PT117H.grib2 2026-04-12 16:46 1.3M
20260412T12Z_MSC_GDPS_WindU_IsbL-0850_LatLon0.15_PT117H.grib2 2026-04-12 16:46 1.4M
20260412T12Z_MSC_GDPS_WindU_IsbL-0875_LatLon0.15_PT117H.grib2 2026-04-12 16:46 1.4M
20260412T12Z_MSC_GDPS_WindU_IsbL-0900_LatLon0.15_PT117H.grib2 2026-04-12 16:46 1.5M
20260412T12Z_MSC_GDPS_WindU_IsbL-0925_LatLon0.15_PT117H.grib2 2026-04-12 16:46 1.5M
20260412T12Z_MSC_GDPS_WindU_IsbL-0950_LatLon0.15_PT117H.grib2 2026-04-12 16:46 1.4M
20260412T12Z_MSC_GDPS_WindU_IsbL-0970_LatLon0.15_PT117H.grib2 2026-04-12 16:46 1.4M
20260412T12Z_MSC_GDPS_WindU_IsbL-0985_LatLon0.15_PT117H.grib2 2026-04-12 16:46 1.4M
20260412T12Z_MSC_GDPS_WindU_IsbL-1000_LatLon0.15_PT117H.grib2 2026-04-12 16:46 1.4M
20260412T12Z_MSC_GDPS_WindU_IsbL-1015_LatLon0.15_PT117H.grib2 2026-04-12 16:46 1.3M
20260412T12Z_MSC_GDPS_WindV_AGL-10m_LatLon0.15_PT117H.grib2 2026-04-12 16:46 1.6M
20260412T12Z_MSC_GDPS_WindV_AGL-120m_LatLon0.15_PT117H.grib2 2026-04-12 16:46 968K
20260412T12Z_MSC_GDPS_WindV_AGL-40m_LatLon0.15_PT117H.grib2 2026-04-12 16:46 963K
20260412T12Z_MSC_GDPS_WindV_AGL-80m_LatLon0.15_PT117H.grib2 2026-04-12 16:46 969K
20260412T12Z_MSC_GDPS_WindV_IsbL-0001_LatLon0.15_PT117H.grib2 2026-04-12 16:46 753K
20260412T12Z_MSC_GDPS_WindV_IsbL-0005_LatLon0.15_PT117H.grib2 2026-04-12 16:46 837K
20260412T12Z_MSC_GDPS_WindV_IsbL-0010_LatLon0.15_PT117H.grib2 2026-04-12 16:46 794K
20260412T12Z_MSC_GDPS_WindV_IsbL-0020_LatLon0.15_PT117H.grib2 2026-04-12 16:46 848K
20260412T12Z_MSC_GDPS_WindV_IsbL-0030_LatLon0.15_PT117H.grib2 2026-04-12 16:46 846K
20260412T12Z_MSC_GDPS_WindV_IsbL-0050_LatLon0.15_PT117H.grib2 2026-04-12 16:46 898K
20260412T12Z_MSC_GDPS_WindV_IsbL-0100_LatLon0.15_PT117H.grib2 2026-04-12 16:46 851K
20260412T12Z_MSC_GDPS_WindV_IsbL-0150_LatLon0.15_PT117H.grib2 2026-04-12 16:46 972K
20260412T12Z_MSC_GDPS_WindV_IsbL-0175_LatLon0.15_PT117H.grib2 2026-04-12 16:46 1.0M
20260412T12Z_MSC_GDPS_WindV_IsbL-0200_LatLon0.15_PT117H.grib2 2026-04-12 16:46 1.0M
20260412T12Z_MSC_GDPS_WindV_IsbL-0225_LatLon0.15_PT117H.grib2 2026-04-12 16:46 842K
20260412T12Z_MSC_GDPS_WindV_IsbL-0250_LatLon0.15_PT117H.grib2 2026-04-12 16:46 846K
20260412T12Z_MSC_GDPS_WindV_IsbL-0275_LatLon0.15_PT117H.grib2 2026-04-12 16:46 873K
20260412T12Z_MSC_GDPS_WindV_IsbL-0300_LatLon0.15_PT117H.grib2 2026-04-12 16:46 920K
20260412T12Z_MSC_GDPS_WindV_IsbL-0350_LatLon0.15_PT117H.grib2 2026-04-12 16:46 873K
20260412T12Z_MSC_GDPS_WindV_IsbL-0400_LatLon0.15_PT117H.grib2 2026-04-12 16:46 871K
20260412T12Z_MSC_GDPS_WindV_IsbL-0450_LatLon0.15_PT117H.grib2 2026-04-12 16:46 871K
20260412T12Z_MSC_GDPS_WindV_IsbL-0500_LatLon0.15_PT117H.grib2 2026-04-12 16:46 1.1M
20260412T12Z_MSC_GDPS_WindV_IsbL-0550_LatLon0.15_PT117H.grib2 2026-04-12 16:46 1.1M
20260412T12Z_MSC_GDPS_WindV_IsbL-0600_LatLon0.15_PT117H.grib2 2026-04-12 16:46 1.1M
20260412T12Z_MSC_GDPS_WindV_IsbL-0650_LatLon0.15_PT117H.grib2 2026-04-12 16:46 1.1M
20260412T12Z_MSC_GDPS_WindV_IsbL-0700_LatLon0.15_PT117H.grib2 2026-04-12 16:46 1.2M
20260412T12Z_MSC_GDPS_WindV_IsbL-0750_LatLon0.15_PT117H.grib2 2026-04-12 16:46 1.2M
20260412T12Z_MSC_GDPS_WindV_IsbL-0800_LatLon0.15_PT117H.grib2 2026-04-12 16:46 1.3M
20260412T12Z_MSC_GDPS_WindV_IsbL-0850_LatLon0.15_PT117H.grib2 2026-04-12 16:46 1.4M
20260412T12Z_MSC_GDPS_WindV_IsbL-0875_LatLon0.15_PT117H.grib2 2026-04-12 16:46 1.4M
20260412T12Z_MSC_GDPS_WindV_IsbL-0900_LatLon0.15_PT117H.grib2 2026-04-12 16:46 1.4M
20260412T12Z_MSC_GDPS_WindV_IsbL-0925_LatLon0.15_PT117H.grib2 2026-04-12 16:46 1.4M
20260412T12Z_MSC_GDPS_WindV_IsbL-0950_LatLon0.15_PT117H.grib2 2026-04-12 16:46 1.4M
20260412T12Z_MSC_GDPS_WindV_IsbL-0970_LatLon0.15_PT117H.grib2 2026-04-12 16:46 1.4M
20260412T12Z_MSC_GDPS_WindV_IsbL-0985_LatLon0.15_PT117H.grib2 2026-04-12 16:46 1.4M
20260412T12Z_MSC_GDPS_WindV_IsbL-1000_LatLon0.15_PT117H.grib2 2026-04-12 16:46 1.4M
20260412T12Z_MSC_GDPS_WindV_IsbL-1015_LatLon0.15_PT117H.grib2 2026-04-12 16:46 1.6M